Location: ????????
(38.4362°N, 22.8767°E)
Time: 04:39:14
(UTC+00:00)

Cosmos 2369 Rocket - Pass Details

Date: 23 April 2024
Orbit: 830 x 850 km, 71.0° (Epoch: 23 May)

Event Time Altitude Azimuth Distance (km) Brightness Sun altitude
Rises 02:41:18 0° 326° (NNW) 3,381 5.3 -11.7°
Reaches altitude 10° 02:43:59 10° 317° (NW) 2,441 4.4 -11.3°
Maximum altitude 02:48:48 31° 257° (WSW) 1,430 2.9 -10.4°
Drops below altitude 10° 02:53:36 10° 197° (SSW) 2,426 4.2 -9.6°
Sets 02:56:16 0° 187° (S) 3,356 5.0 -9.1°
